Location: Unspecified
(0.0000°N, 0.0000°E)
Time: 12:44:13
(UTC+00:00)

SL-12 DEB - Pass Details

Date: 01 May 2025
Orbit: 905 x 18020 km, 65.1° (Epoch: 09 July)

Event Time Altitude Azimuth Distance (km) Brightness Sun altitude
Rises 15:47:24 0° 337° (NNW) 17,812 ? 31.1°
Reaches altitude 10° 16:35:43 10° 357° (N) 21,310 ? 19.6°
Maximum altitude 19:07:13 49° 68° (ENE) 10,804 ? -16.9°
Enters shadow 19:32:45 24° 123° (ESE) 7,449 ? -23.0°
